SCP
-0 0 -0 0 0 0 0 -0 -0 -0 -0 -0 -0 -0 -0 -0 -0 -0 -0 -0 -0 -0 -0 -0 -0 -0 -0 -0 -0 -0 -0 -0 -0 -0 -0 -0 -0 -0 -0 -0 -0 -0 -0
-0 -0 -0 0 0 0 0 0 0 0 0 0 -0 -0 -0 -0 -0 -0 -0 -0 -0 -0 -0 -0 -0 -0 -0 -0 -0 -0 -0 -0 0 0 0 -0 -0 -0 -0 -0 -0 -0 -0
0 -0 -0 0 0 0 0 0 0 0 -0 -0 -0 -0 -0 -0 -0 -0 -0 -0 -0 -0 -0 -0 -0 -0 -0 -0 -0 -0 -0 -0 -0 -0 -0 0 -0 -0 -0 -0 -0 -0 -0
-0 -0 -0 -0 0 0 0 0 -0 0 0 -0 -0 -0 -0 -0 -0 -0 -0 -0 -0 -0 -0 -0 -0 -0 -0 -0 -0 0 -0 -0 -0 -0 0 0 -0 -0 -0 -0 -0 -0 -0
0 0 0 0 0 0 0 0 0 0 -0 -0 -0 -0 -0 -0 -0 -0 -0 -0 -0 -0 -0 -0 -0 -0 -0 -0 -0 -0 -0 0 0 0 0 0 0 -0 -0 -0 -0 -0 -0
0 0 0 0 0 -0 -0 0 -0 0 -0 -0 -0 -0 -0 -0 -0 -0 -0 -0 -0 -0 -0 -0 -0 -0 0 0 -0 0 0 0 0 0 0 0 0 -0 -0 -0 -0 -0 0
0 0 -0 -0 -0 -0 0 0 -0 -0 -0 -0 -0 -0 -0 -0 -0 -0 -0 -0 -0 -0 -0 -0 -0 0 -0 -0 0 0 0 0 0 0 0 0 0 0 -0 0 0 0 0
0 -0 -0 -0 -0 -0 -0 -0 0 0 -0 -0 -0 -0 -0 -0 -0 -0 -0 -0 0 0 -0 0 0 0 0 -0 0 0 0 0 0 0 0 0 0 0 0 0 0 0 0
-0 -0 -0 -0 0 0 0 0 0 -0 -0 -0 -0 -0 -0 -0 -0 -0 -0 0 0 0 0 0 0 0 0 0 0 0 0 0 0 0 0 0 0 0 0 0 0 0 0
-0 -0 -0 -0 -0 -0 -0 0 -0 -0 -0 -0 -0 -0 -0 -0 -0 -0 -0 0 0 -0 0 0 0 0 0 0 0 0 0 0 0 0 0 0 0 0 0 0 0 0 0
-0 -0 -0 0 0 0 0 0 -0 -0 -0 -0 -0 -0 -0 -0 -0 -0 0 0 0 0 0 0 0 0 0 0 0 0 0 0 0 0 0 0 0 0 0 0 0 0 0
-0 -0 0 0 0 0 0 -0 -0 -0 -0 -0 -0 -0 0 0 0 0 0 0 0 0 0 0 0 0 0 0 0 0 0 0 0 0 0 0 0 0 0 0 0 0 0
-0 -0 -0 0 0 -0 -0 -0 -0 -0 -0 -0 -0 0 0 0 0 0 0 0 0 0 0 0 0 0 0 0 0 0 0 0 0 0 0 0 0 0 0 0 0 0 0
-0 -0 -0 -0 -0 -0 0 0 0 -0 -0 -0 -0 -0 0 0 0 0 0 0 0 0 0 0 0 0 0 0 0 0 0 0 0 0 0 0 0 0 0 0 0 0 0
-0 -0 -0 -0 -0 -0 -0 -0 -0 -0 -0 -0 0 0 0 0 0 0 0 0 0 0 0 0 0 0 0 0 0 0 0 0 0 0 0 0 0 0 0 0 0 0 0
-0 -0 -0 -0 -0 -0 -0 -0 -0 -0 -0 -0 0 0 0 0 0 0 0 0 0 0 0 0 0 0 0 0 0 0 0 0 0 0 0 0 0 0 0 0 0 0 0
-0 0 -0 -0 -0 -0 -0 -0 -0 -0 0 0 0 0 0 0 0 0 0 0 0 0 0 0 0 0 0 0 0 0 0 0 0 0 0 0 0 0 0 0 0 0 0
-0 -0 -0 -0 -0 -0 -0 -0 0 0 0 0 0 0 0 0 0 0 0 0 0 0 0 0 0 0 0 0 0 0 0 0 0 0 0 0 0 0 0 0 0 0 0
-0 -0 -0 -0 -0 -0 -0 0 0 0 0 0 0 0 0 0 0 0 0 0 0 0 0 0 0 0 0 0 0 0 0 0 0 0 0 0 0 0 0 0 0 0 0
-0 0 0 0 0 0 0 0 0 0 0 0 0 0 0 0 0 0 0 0 0 0 0 0 0 0 0 0 0 0 0 0 0 0 0 0 0 0 0 0 0 0 0
0 0 0 0 0 0 0 0 0 0 0 0 0 0 0 0 0 0 0 0 0 0 0 0 0 0 0 0 0 0 0 0 0 0 0 0 0 0 0 0 0 0 0
0 0 0 0 0 0 0 0 0 0 0 0 0 0 0 0 0 0 0 0 0 0 0 0 0 0 0 0 0 0 0 0 0 0 0 0 0 0 0 0 0 0 0
0 0 0 0 0 0 0 0 0 0 0 0 0 0 0 0 0 0 0 0 0 0 0 0 0 0 0 0 0 0 0 0 0 0 0 0 0 0 0 0 0 0 0
0 0 0 0 0 0 0 0 0 0 0 0 0 0 0 0 0 0 0 0 0 0 0 0 0 0 0 0 0 0 0 0 0 0 0 0 0 0 0 0 0 0 0
0 0 0 0 0 0 0 0 0 0 0 0 0 0 0 0 0 0 0 0 0 0 0 0 0 0 0 0 0 0 0 0 0 0 0 0 0 0 0 0 0 0 0
0 0 0 0 0 0 0 0 0 0 0 0 0 0 0 0 0 0 0 0 0 0 0 0 0 0 0 0 0 0 0 0 0 0 0 0 0 0 0 0 0 0 0
Wind_Speed_500mb
35 32 22 20 19 19 17 19 21 21 20 21 21 24 23 26 23 21 22 20 17 20 20 18 16 13 12 10 15 20 21 23 23 27 26 26 24 26 26 26 30 30 29
39 33 28 23 21 23 21 24 26 30 26 25 17 21 21 23 23 25 25 30 27 29 27 22 19 19 17 16 20 25 27 32 38 43 45 42 40 41 39 38 34 33 31
41 37 29 25 23 24 24 27 33 35 28 22 14 15 18 21 22 23 28 30 32 29 28 26 24 21 21 22 27 30 33 37 39 42 40 39 35 31 31 30 29 26 23
44 37 32 30 26 24 27 28 38 35 27 18 11 14 19 20 20 22 26 32 31 24 25 26 24 23 24 29 35 37 35 36 31 38 39 31 25 20 23 25 23 20 18
44 37 35 32 27 24 24 27 32 32 26 16 9 18 18 19 19 20 22 31 28 22 25 24 24 30 28 31 32 30 34 31 24 23 23 21 19 10 16 17 17 21 25
43 38 27 27 25 22 24 25 28 28 25 13 13 16 16 18 20 19 17 21 30 20 24 25 30 31 31 28 32 31 27 26 24 20 20 12 15 12 12 16 18 22 27
41 36 26 23 21 22 23 25 25 25 20 15 16 17 17 18 19 16 16 18 23 23 25 27 30 28 22 21 21 25 22 17 19 19 17 14 7 13 16 17 17 21 23
41 36 34 26 24 23 22 23 22 22 18 17 17 17 17 17 17 16 16 17 21 25 18 24 24 19 18 10 21 19 16 13 17 17 17 13 5 12 12 17 17 16 15
39 40 34 30 26 23 22 21 19 18 16 15 15 15 15 16 17 15 15 15 23 20 15 18 16 13 13 13 13 10 14 12 12 11 12 7 7 8 13 12 12 8 10
39 36 33 31 28 26 24 22 21 19 16 14 13 12 12 13 14 13 13 13 12 19 15 12 10 8 10 9 8 7 10 12 11 11 9 5 4 6 10 7 8 7 7
38 36 34 31 30 27 23 23 20 17 14 12 10 9 8 9 10 10 10 10 10 13 13 11 9 7 6 4 3 6 11 8 9 8 4 2 5 4 6 4 5 6 4
45 42 37 34 32 30 25 22 20 17 15 12 10 7 6 6 6 6 6 8 8 9 9 8 7 7 5 2 6 9 8 10 5 4 1 11 10 10 6 4 4 4 4
47 46 42 38 36 33 32 29 24 21 19 17 14 11 9 6 5 5 4 5 6 6 6 6 5 4 2 2 4 6 7 10 2 2 6 15 18 17 16 17 12 10 8
51 48 46 44 42 39 35 32 28 25 22 19 18 15 12 9 6 6 5 5 5 4 4 4 3 2 2 4 6 7 8 8 6 4 8 12 18 25 26 26 23 22 17
51 48 47 45 44 42 39 35 32 29 26 25 22 20 17 14 12 11 11 9 8 6 3 3 3 2 2 4 9 11 11 12 11 11 9 14 19 25 30 33 32 30 25
48 45 43 44 44 43 41 38 36 34 32 31 30 26 23 20 20 18 17 15 14 13 9 5 7 6 9 11 13 14 17 19 19 20 17 20 22 29 34 36 38 38 34
46 43 44 43 43 45 43 40 39 37 38 37 34 32 30 28 27 25 23 21 16 17 20 20 21 18 21 21 22 25 24 24 24 26 29 29 32 32 34 41 44 46 46
46 47 46 46 46 44 44 40 38 34 30 32 35 36 36 34 33 31 30 27 24 25 24 26 28 31 34 35 36 38 39 41 41 40 42 43 44 43 45 48 51 51 48
48 49 50 50 49 48 46 44 42 39 36 32 32 31 33 33 33 33 35 31 32 28 32 32 36 37 38 43 45 49 51 52 54 53 52 54 59 57 57 59 59 56 57
51 52 54 55 53 52 52 52 51 50 47 44 40 37 31 33 35 35 33 28 35 36 40 40 43 46 50 52 55 58 57 58 59 64 62 65 64 64 68 72 71 68 68
53 57 57 59 58 59 60 59 60 60 57 55 50 44 40 38 42 41 44 43 42 46 45 51 54 57 56 56 62 63 70 70 73 73 70 74 76 69 71 73 74 74 80
48 55 59 59 59 60 60 60 61 60 59 56 55 52 49 46 45 47 47 51 53 55 57 54 57 63 65 65 71 73 65 64 81 66 64 66 64 69 69 70 70 69 75
51 61 57 57 58 59 57 57 58 61 57 54 52 49 47 47 47 51 51 55 57 58 60 59 62 64 74 72 69 82 42 40 48 61 57 64 64 67 71 69 71 71 76
27 47 56 52 51 54 55 57 55 54 52 49 48 43 42 38 37 43 46 49 54 60 63 64 70 70 67 76 73 75 82 82 73 71 66 68 82 86 86 85 78 76 73
8 16 32 38 43 44 45 48 49 50 47 45 44 43 43 43 42 41 41 43 45 52 55 59 63 64 67 71 76 85 81 83 86 90 83 80 84 90 89 87 85 87 88
18 14 15 22 30 32 31 32 37 38 39 41 41 41 43 43 43 41 41 43 47 52 58 61 63 65 67 72 73 77 82 82 85 85 93 106 103 103 92 94 91 90 90
Wind_Direction_500mb
163 157 155 138 133 122 122 123 124 121 115 111 99 96 86 76 74 88 99 108 120 147 151 133 128 131 123 108 91 92 93 90 88 78 81 88 88 83 82 78 83 88 93
155 156 144 137 136 124 129 127 120 110 109 104 109 97 83 74 80 85 90 94 87 111 116 117 112 112 114 110 93 90 90 88 84 85 78 78 84 89 93 93 85 85 92
151 146 132 127 124 123 132 127 129 118 121 123 114 94 75 74 85 89 87 94 94 85 100 104 105 106 108 101 96 101 92 98 101 105 104 101 101 104 100 98 94 94 91
148 140 136 130 128 128 132 133 128 123 127 134 109 94 73 75 89 92 94 95 96 91 87 94 97 101 101 101 102 101 96 102 103 110 106 97 91 100 102 105 108 101 97
154 146 143 131 128 122 124 126 133 126 130 146 129 75 68 81 95 97 96 100 105 99 92 88 91 101 94 97 95 104 109 109 112 101 102 93 79 93 109 105 109 100 96
158 156 142 134 123 130 122 126 133 138 145 138 93 80 82 87 96 104 95 92 105 103 88 89 97 97 86 89 106 112 111 107 98 81 76 92 92 122 122 113 113 110 106
165 163 158 143 140 140 129 125 133 140 133 111 94 87 87 90 95 101 87 76 106 104 87 97 90 93 99 102 109 112 107 94 81 70 72 93 113 103 104 103 99 107 103
169 165 158 155 153 146 133 132 132 129 126 112 98 89 89 91 92 94 83 76 101 103 97 92 97 100 107 107 114 111 103 73 73 76 80 87 46 100 113 103 107 102 92
177 169 167 165 159 153 149 141 132 129 126 112 97 91 90 94 93 93 87 83 99 118 124 110 114 116 111 116 102 73 58 54 66 71 80 66 111 135 112 111 99 100 96
179 179 178 177 173 169 164 154 154 150 142 129 118 113 103 97 94 90 87 88 93 132 138 136 123 112 97 98 97 54 19 14 40 55 73 111 196 155 131 113 116 109 100
189 191 190 190 187 184 176 169 164 159 157 156 141 119 106 96 97 98 97 95 95 111 128 132 127 117 117 100 69 11 9 18 38 65 78 193 170 215 131 106 112 125 125
194 197 199 199 199 196 192 187 183 180 182 182 182 169 152 143 132 122 112 96 86 88 106 120 123 118 120 61 8 359 349 354 30 79 345 322 170 243 214 210 202 180 239
201 203 203 205 206 207 206 203 200 198 201 203 202 203 202 188 175 155 125 121 115 100 103 123 125 120 103 39 8 3 357 9 346 342 338 357 8 341 338 319 297 281 256
211 212 210 210 211 212 216 215 215 214 216 219 221 223 223 224 220 211 208 197 181 134 104 122 138 118 53 12 6 11 19 12 9 321 289 334 329 330 336 342 343 312 287
215 217 216 216 217 218 221 223 226 227 230 234 235 236 235 237 238 237 236 235 230 214 185 173 198 204 318 348 353 352 352 350 347 340 314 327 315 309 309 312 316 326 315
218 219 216 219 221 224 227 228 232 236 239 241 242 243 243 244 246 244 243 241 241 232 213 223 258 270 305 310 319 322 318 319 317 309 294 289 298 299 294 293 299 307 309
220 217 216 216 218 223 228 231 235 237 240 243 247 249 250 249 249 249 249 248 247 255 253 250 254 256 263 269 274 276 276 270 262 273 272 271 275 282 291 288 288 290 292
224 221 220 221 221 223 226 230 236 240 243 245 248 252 252 252 253 252 247 248 247 252 258 269 270 276 272 271 273 274 275 275 277 275 278 276 269 263 268 270 271 275 274
226 226 225 227 228 230 233 236 241 246 249 250 251 250 249 250 252 249 249 250 257 254 253 260 266 270 276 278 280 279 279 281 279 277 281 280 277 275 272 268 268 265 268
232 230 230 231 232 233 237 241 245 248 250 253 253 255 252 252 254 256 258 252 256 259 265 269 270 272 273 276 277 279 282 282 280 280 281 279 280 280 276 274 276 272 270
235 234 232 232 232 234 237 238 242 246 250 253 256 260 259 257 256 260 258 259 266 266 268 270 273 272 275 277 277 285 277 280 280 280 285 281 279 282 277 276 276 274 272
234 235 234 234 234 236 240 242 245 250 254 258 262 263 264 263 260 256 264 266 268 270 270 274 272 274 274 278 274 272 273 283 283 282 290 285 284 279 277 274 277 277 279
236 232 231 233 235 237 238 242 244 248 254 257 259 263 265 269 267 267 269 267 266 267 270 270 272 274 274 274 275 272 269 276 280 294 286 283 281 278 279 274 273 272 280
239 230 228 231 233 236 237 240 246 251 255 262 267 272 278 281 277 272 272 271 266 269 273 275 281 275 282 272 274 277 272 278 274 285 283 280 282 283 284 282 276 279 282
162 206 223 228 229 233 235 237 242 250 255 260 264 272 277 280 280 280 277 278 273 275 278 277 278 278 277 280 277 281 277 280 276 269 279 285 284 285 286 283 291 278 283
106 128 172 200 212 218 224 227 234 242 249 254 260 265 269 272 274 274 273 271 271 271 273 275 277 276 275 274 276 278 279 279 280 280 283 288 291 290 287 285 286 287 285
Wind_Speed_850mb
35 32 22 20 19 19 17 19 21 21 20 21 21 24 23 26 23 21 22 20 17 20 20 18 16 13 12 10 15 20 21 23 23 27 26 26 24 26 26 26 30 30 29
39 33 28 23 21 23 21 24 26 30 26 25 17 21 21 23 23 25 25 30 27 29 27 22 19 19 17 16 20 25 27 32 38 43 45 42 40 41 39 38 34 33 31
41 37 29 25 23 24 24 27 33 35 28 22 14 15 18 21 22 23 28 30 32 29 28 26 24 21 21 22 27 30 33 37 39 42 40 39 35 31 31 30 29 26 23
44 37 32 30 26 24 27 28 38 35 27 18 11 14 19 20 20 22 26 32 31 24 25 26 24 23 24 29 35 37 35 36 31 38 39 31 25 20 23 25 23 20 18
44 37 35 32 27 24 24 27 32 32 26 16 9 18 18 19 19 20 22 31 28 22 25 24 24 30 28 31 32 30 34 31 24 23 23 21 19 10 16 17 17 21 25
43 38 27 27 25 22 24 25 28 28 25 13 13 16 16 18 20 19 17 21 30 20 24 25 30 31 31 28 32 31 27 26 24 20 20 12 15 12 12 16 18 22 27
41 36 26 23 21 22 23 25 25 25 20 15 16 17 17 18 19 16 16 18 23 23 25 27 30 28 22 21 21 25 22 17 19 19 17 14 7 13 16 17 17 21 23
41 36 34 26 24 23 22 23 22 22 18 17 17 17 17 17 17 16 16 17 21 25 18 24 24 19 18 10 21 19 16 13 17 17 17 13 5 12 12 17 17 16 15
39 40 34 30 26 23 22 21 19 18 16 15 15 15 15 16 17 15 15 15 23 20 15 18 16 13 13 13 13 10 14 12 12 11 12 7 7 8 13 12 12 8 10
39 36 33 31 28 26 24 22 21 19 16 14 13 12 12 13 14 13 13 13 12 19 15 12 10 8 10 9 8 7 10 12 11 11 9 5 4 6 10 7 8 7 7
38 36 34 31 30 27 23 23 20 17 14 12 10 9 8 9 10 10 10 10 10 13 13 11 9 7 6 4 3 6 11 8 9 8 4 2 5 4 6 4 5 6 4
45 42 37 34 32 30 25 22 20 17 15 12 10 7 6 6 6 6 6 8 8 9 9 8 7 7 5 2 6 9 8 10 5 4 1 11 10 10 6 4 4 4 4
47 46 42 38 36 33 32 29 24 21 19 17 14 11 9 6 5 5 4 5 6 6 6 6 5 4 2 2 4 6 7 10 2 2 6 15 18 17 16 17 12 10 8
51 48 46 44 42 39 35 32 28 25 22 19 18 15 12 9 6 6 5 5 5 4 4 4 3 2 2 4 6 7 8 8 6 4 8 12 18 25 26 26 23 22 17
51 48 47 45 44 42 39 35 32 29 26 25 22 20 17 14 12 11 11 9 8 6 3 3 3 2 2 4 9 11 11 12 11 11 9 14 19 25 30 33 32 30 25
48 45 43 44 44 43 41 38 36 34 32 31 30 26 23 20 20 18 17 15 14 13 9 5 7 6 9 11 13 14 17 19 19 20 17 20 22 29 34 36 38 38 34
46 43 44 43 43 45 43 40 39 37 38 37 34 32 30 28 27 25 23 21 16 17 20 20 21 18 21 21 22 25 24 24 24 26 29 29 32 32 34 41 44 46 46
46 47 46 46 46 44 44 40 38 34 30 32 35 36 36 34 33 31 30 27 24 25 24 26 28 31 34 35 36 38 39 41 41 40 42 43 44 43 45 48 51 51 48
48 49 50 50 49 48 46 44 42 39 36 32 32 31 33 33 33 33 35 31 32 28 32 32 36 37 38 43 45 49 51 52 54 53 52 54 59 57 57 59 59 56 57
51 52 54 55 53 52 52 52 51 50 47 44 40 37 31 33 35 35 33 28 35 36 40 40 43 46 50 52 55 58 57 58 59 64 62 65 64 64 68 72 71 68 68
53 57 57 59 58 59 60 59 60 60 57 55 50 44 40 38 42 41 44 43 42 46 45 51 54 57 56 56 62 63 70 70 73 73 70 74 76 69 71 73 74 74 80
48 55 59 59 59 60 60 60 61 60 59 56 55 52 49 46 45 47 47 51 53 55 57 54 57 63 65 65 71 73 65 64 81 66 64 66 64 69 69 70 70 69 75
51 61 57 57 58 59 57 57 58 61 57 54 52 49 47 47 47 51 51 55 57 58 60 59 62 64 74 72 69 82 42 40 48 61 57 64 64 67 71 69 71 71 76
27 47 56 52 51 54 55 57 55 54 52 49 48 43 42 38 37 43 46 49 54 60 63 64 70 70 67 76 73 75 82 82 73 71 66 68 82 86 86 85 78 76 73
8 16 32 38 43 44 45 48 49 50 47 45 44 43 43 43 42 41 41 43 45 52 55 59 63 64 67 71 76 85 81 83 86 90 83 80 84 90 89 87 85 87 88
18 14 15 22 30 32 31 32 37 38 39 41 41 41 43 43 43 41 41 43 47 52 58 61 63 65 67 72 73 77 82 82 85 85 93 106 103 103 92 94 91 90 90
Wind_Direction_850mb
163 157 155 138 133 122 122 123 124 121 115 111 99 96 86 76 74 88 99 108 120 147 151 133 128 131 123 108 91 92 93 90 88 78 81 88 88 83 82 78 83 88 93
155 156 144 137 136 124 129 127 120 110 109 104 109 97 83 74 80 85 90 94 87 111 116 117 112 112 114 110 93 90 90 88 84 85 78 78 84 89 93 93 85 85 92
151 146 132 127 124 123 132 127 129 118 121 123 114 94 75 74 85 89 87 94 94 85 100 104 105 106 108 101 96 101 92 98 101 105 104 101 101 104 100 98 94 94 91
148 140 136 130 128 128 132 133 128 123 127 134 109 94 73 75 89 92 94 95 96 91 87 94 97 101 101 101 102 101 96 102 103 110 106 97 91 100 102 105 108 101 97
154 146 143 131 128 122 124 126 133 126 130 146 129 75 68 81 95 97 96 100 105 99 92 88 91 101 94 97 95 104 109 109 112 101 102 93 79 93 109 105 109 100 96
158 156 142 134 123 130 122 126 133 138 145 138 93 80 82 87 96 104 95 92 105 103 88 89 97 97 86 89 106 112 111 107 98 81 76 92 92 122 122 113 113 110 106
165 163 158 143 140 140 129 125 133 140 133 111 94 87 87 90 95 101 87 76 106 104 87 97 90 93 99 102 109 112 107 94 81 70 72 93 113 103 104 103 99 107 103
169 165 158 155 153 146 133 132 132 129 126 112 98 89 89 91 92 94 83 76 101 103 97 92 97 100 107 107 114 111 103 73 73 76 80 87 46 100 113 103 107 102 92
177 169 167 165 159 153 149 141 132 129 126 112 97 91 90 94 93 93 87 83 99 118 124 110 114 116 111 116 102 73 58 54 66 71 80 66 111 135 112 111 99 100 96
179 179 178 177 173 169 164 154 154 150 142 129 118 113 103 97 94 90 87 88 93 132 138 136 123 112 97 98 97 54 19 14 40 55 73 111 196 155 131 113 116 109 100
189 191 190 190 187 184 176 169 164 159 157 156 141 119 106 96 97 98 97 95 95 111 128 132 127 117 117 100 69 11 9 18 38 65 78 193 170 215 131 106 112 125 125
194 197 199 199 199 196 192 187 183 180 182 182 182 169 152 143 132 122 112 96 86 88 106 120 123 118 120 61 8 359 349 354 30 79 345 322 170 243 214 210 202 180 239
201 203 203 205 206 207 206 203 200 198 201 203 202 203 202 188 175 155 125 121 115 100 103 123 125 120 103 39 8 3 357 9 346 342 338 357 8 341 338 319 297 281 256
211 212 210 210 211 212 216 215 215 214 216 219 221 223 223 224 220 211 208 197 181 134 104 122 138 118 53 12 6 11 19 12 9 321 289 334 329 330 336 342 343 312 287
215 217 216 216 217 218 221 223 226 227 230 234 235 236 235 237 238 237 236 235 230 214 185 173 198 204 318 348 353 352 352 350 347 340 314 327 315 309 309 312 316 326 315
218 219 216 219 221 224 227 228 232 236 239 241 242 243 243 244 246 244 243 241 241 232 213 223 258 270 305 310 319 322 318 319 317 309 294 289 298 299 294 293 299 307 309
220 217 216 216 218 223 228 231 235 237 240 243 247 249 250 249 249 249 249 248 247 255 253 250 254 256 263 269 274 276 276 270 262 273 272 271 275 282 291 288 288 290 292
224 221 220 221 221 223 226 230 236 240 243 245 248 252 252 252 253 252 247 248 247 252 258 269 270 276 272 271 273 274 275 275 277 275 278 276 269 263 268 270 271 275 274
226 226 225 227 228 230 233 236 241 246 249 250 251 250 249 250 252 249 249 250 257 254 253 260 266 270 276 278 280 279 279 281 279 277 281 280 277 275 272 268 268 265 268
232 230 230 231 232 233 237 241 245 248 250 253 253 255 252 252 254 256 258 252 256 259 265 269 270 272 273 276 277 279 282 282 280 280 281 279 280 280 276 274 276 272 270
235 234 232 232 232 234 237 238 242 246 250 253 256 260 259 257 256 260 258 259 266 266 268 270 273 272 275 277 277 285 277 280 280 280 285 281 279 282 277 276 276 274 272
234 235 234 234 234 236 240 242 245 250 254 258 262 263 264 263 260 256 264 266 268 270 270 274 272 274 274 278 274 272 273 283 283 282 290 285 284 279 277 274 277 277 279
236 232 231 233 235 237 238 242 244 248 254 257 259 263 265 269 267 267 269 267 266 267 270 270 272 274 274 274 275 272 269 276 280 294 286 283 281 278 279 274 273 272 280
239 230 228 231 233 236 237 240 246 251 255 262 267 272 278 281 277 272 272 271 266 269 273 275 281 275 282 272 274 277 272 278 274 285 283 280 282 283 284 282 276 279 282
162 206 223 228 229 233 235 237 242 250 255 260 264 272 277 280 280 280 277 278 273 275 278 277 278 278 277 280 277 281 277 280 276 269 279 285 284 285 286 283 291 278 283
106 128 172 200 212 218 224 227 234 242 249 254 260 265 269 272 274 274 273 271 271 271 273 275 277 276 275 274 276 278 279 279 280 280 283 288 291 290 287 285 286 287 285